Tracking 22882 objects as of 18-Apr-2021
HD Live streaming from Space Station
objects crossing your sky now

EXPLORER 16

Track EXPLORER 16 now!
10-day predictions
EXPLORER 16 is classified as:


NORAD ID: 506
Int'l Code: 1962-070A
Perigee: 749.2 km
Apogee: 1,156.2 km
Inclination: 52.0 °
Period: 104.0 minutes
Semi major axis: 7323 km
RCS: 0.6378 m2 (medium)
Launch date: December 16, 1962
Source: United States (US)
Launch site: WALLOPS ISLAND (WLPIS)
aabbcc
Your satellite tracking list
Your tracking list is empty




NASA's NSSDC Master Catalog

Two Line Element Set (TLE):
1 00506U 62070A   21107.91100046 -.00000127  00000-0  12448-4 0  9992
2 00506  52.0047  12.0355 0277835 176.2802 184.0274 13.85180811947298
Source of the keplerian elements: AFSPC